AO-07 1 07530U 74089B 26173.50999495 -.00000042 00000-0 26889-4 0 9996 2 07530 101.9899 186.8122 0012626 120.2640 33.9567 12.53698175361183 UO-11 1 14781U 84021B 26173.65809851 .00001018 00000-0 10915-3 0 9996 2 14781 97.8059 139.1716 0008115 155.4224 204.7383 14.90794156257947 LO-19 1 20442U 90005G 26173.34484693 .00000069 00000-0 41171-4 0 9999 2 20442 98.8847 195.2926 0011417 185.6168 174.4890 14.34124429903134 AO-27 1 22825U 93061C 26173.45393392 .00000057 00000-0 38710-4 0 9990 2 22825 98.6878 240.8657 0009549 86.2752 273.9523 14.30943433707757 FO-29 1 24278U 96046B 26173.48650619 -.00000020 00000-0 12357-4 0 9991 2 24278 98.5236 21.6325 0350930 82.7220 281.3662 13.53274621473880 GO-32 1 25397U 98043D 26173.68382816 .00000037 00000-0 36155-4 0 9995 2 25397 99.0069 166.5812 0001326 152.1038 208.0212 14.24429238452119 ISS 1 25544U 98067A 26173.73662978 .00008151 00000-0 15395-3 0 9998 2 25544 51.6325 272.6245 0004456 218.9710 141.0958 15.49373286572616 NO-44 1 26931U 01043C 26173.60725152 .00000029 00000-0 41662-4 0 9990 2 26931 67.0498 230.2533 0006057 264.8434 95.1977 14.31957590291222 SO-50 1 27607U 02058C 26173.21270606 .00000697 00000-0 99777-4 0 9995 2 27607 64.5516 113.4366 0075144 261.5322 97.7262 14.83055677265201 CO-55 1 27844U 03031E 26173.72726103 .00000201 00000-0 10595-3 0 9995 2 27844 98.6736 182.2165 0009866 162.2410 197.9116 14.24338450192466 RS-22 1 27939U 03042A 26173.85795519 .00001035 00000-0 16757-3 0 9995 2 27939 98.3477 358.3770 0009961 249.2406 222.3722 14.73476485216384 CO-65 1 32785U 08021C 26173.81711056 .00004099 00000-0 25978-3 0 9990 2 32785 97.8280 155.3526 0009270 21.9068 338.2554 15.09498177986040 CO-66 1 32791U 08021J 26173.42331423 .00013901 00000-0 43974-3 0 9998 2 32791 97.7527 171.5713 0000371 315.0344 45.0867 15.32901579988093 RS-30 1 32953U 08025A 26173.81240424 .00000007 00000-0 -19660-4 0 9995 2 32953 82.5048 351.9401 0018658 300.9406 58.9840 12.43179500820392 SRMSAT 1 37841U 11058D 26172.95148441 .00000351 00000-0 46373-4 0 9998 2 37841 19.9733 30.6303 0011715 256.2995 137.7067 14.11576407758495 ZACUBE-1 1 39417U 13066B 26173.33975722 .00002077 00000-0 16390-3 0 9995 2 39417 97.8063 135.7033 0041483 229.9888 129.7692 15.01210891681501 Delfi-N3xt 1 39428U 13066N 26173.53210427 .00004643 00000-0 40616-3 0 9992 2 39428 97.8335 93.8382 0074029 187.4140 172.5992 14.95123908675424 GOMX-1 1 39430U 13066Q 26173.83766495 .00001427 00000-0 21904-3 0 9995 2 39430 97.6484 13.9436 0129963 59.6466 301.7518 14.69476850670740 LO-74 1 39440U 13066AA 26173.42199251 .00003222 00000-0 29961-3 0 9997 2 39440 97.8906 122.4220 0057991 11.9910 348.2675 14.93801192677773 AO-73 1 39444U 13066AE 26173.42589928 .00004268 00000-0 26631-3 0 9997 2 39444 97.8272 144.9807 0036208 182.8900 177.2125 15.09537633680451 DTUSAT-2 1 40030U 14033W 26173.71971870 .00004933 00000-0 26749-3 0 9997 2 40030 98.0871 171.7981 0007144 203.6150 156.4753 15.15075474653520 LILACSAT-2 1 40908U 15049K 26173.81883747 .00014505 00000-0 24595-3 0 9998 2 40908 97.4644 210.8748 0005962 219.1235 140.9587 15.51603659596625 Horyu-4 1 41340U 16012D 26172.93363152 .00557871 12891-3 10041-2 0 9997 2 41340 30.9840 44.0609 0007233 302.1792 57.8169 16.00402984571575 Lapan A3 1 41603U 16040E 26173.86954576 .00002558 00000-0 82168-4 0 9993 2 41603 97.1491 169.8284 0010184 6.3111 353.8258 15.33134574555680 CAS-2T 1 41847U 16066G 26173.85069890 .00001272 00000-0 18516-3 0 9993 2 41847 98.3820 249.5224 0342905 112.3536 251.4371 14.44710015505615 TechnoSat 1 42829U 17042E 26173.70129223 .00002347 00000-0 16900-3 0 9999 2 42829 97.4297 331.1496 0019324 77.1054 283.2330 15.04990658487530 AO-91 1 43017U 17073E 26173.56579702 .00005824 00000-0 25602-3 0 9990 2 43017 97.4701 40.6703 0148970 310.5186 48.3145 15.12782562466200 S-Net D 1 43186U 18014G 26173.47595817 .00004009 00000-0 20784-3 0 9998 2 43186 97.5356 78.2333 0008351 13.7273 346.4185 15.16713673459565 S-Net B 1 43187U 18014H 26173.48751456 .00004044 00000-0 20981-3 0 9991 2 43187 97.5362 78.2315 0008835 8.1759 351.9616 15.16683517459560 S-Net A 1 43188U 18014J 26173.47480711 .00004057 00000-0 21025-3 0 9998 2 43188 97.5373 78.4286 0008736 9.0846 351.0543 15.16722102459563 S-Net C 1 43189U 18014K 26173.29349048 .00003892 00000-0 20205-3 0 9991 2 43189 97.5389 78.3239 0009888 0.7048 359.4197 15.16673916458080 Ten-Koh 1 43677U 18084G 26173.78273337 .00001084 00000-0 85548-4 0 9994 2 43677 98.0766 6.3826 0011482 98.1388 262.1139 15.02957895417000 PO-101 1 43678U 18084H 26173.83829685 .00002136 00000-0 17463-3 0 9993 2 43678 98.1199 10.2927 0012867 152.1678 208.0235 15.00474712417061 QO-100 1 43700U 18090A 26173.82103547 .00000147 00000-0 00000-0 0 9993 2 43700 0.0147 298.5974 0001997 189.9310 103.8271 1.00272503 27730 MinXSS-2 1 43758U 18099A 26173.20165439 .00027476 00000-0 54096-3 0 9996 2 43758 97.4529 249.6341 0007053 235.6616 124.3967 15.47188090414901 AO-95 1 43770U 18099N 26172.66553232 .00008295 00000-0 31754-3 0 9995 2 43770 97.4381 232.8956 0007503 340.7571 19.3384 15.26789061413902 SNUSat 2 1 43782U 18099AA 26173.06736365 .00005670 00000-0 25191-3 0 9995 2 43782 97.4057 226.3761 0008514 277.9921 82.0349 15.21897280413771 SnugLite 1 43784U 18099AC 26172.66460535 .00008295 00000-0 31328-3 0 9990 2 43784 97.3864 226.9006 0001293 253.1353 106.9744 15.27259002414000 ITASat 1 1 43786U 18099AE 26173.09375829 .00005153 00000-0 24832-3 0 9993 2 43786 97.4028 224.5076 0011561 342.4517 17.6316 15.19106341413650 EAGLET 1 1 43790U 18099AJ 26173.07929043 .00003175 00000-0 18347-3 0 9995 2 43790 97.4229 222.6184 0010181 336.5014 23.5750 15.12968848413075 ESEO 1 43792U 18099AL 26173.56843330 .00001154 00000-0 87022-4 0 9997 2 43792 97.3977 210.7265 0010654 321.7216 38.3253 15.04263935412616 JO-97 1 43803U 18099AX 26173.44568534 .00013019 00000-0 40045-3 0 9993 2 43803 97.4130 236.2984 0004684 237.9316 122.1473 15.33791959414439 Suomi 100 1 43804U 18099AY 26173.44363777 .00009480 00000-0 34391-3 0 9990 2 43804 97.4187 233.8176 0008499 256.5197 103.5096 15.28515557414223 ISAT 1 43879U 18111D 26173.78629374 .00079862 00000-0 77152-3 0 9995 2 43879 97.5866 109.4405 0002489 163.7796 196.3544 15.66201824412047 UWE-4 1 43880U 18111E 26173.52166677 .00027166 00000-0 54968-3 0 9991 2 43880 97.5841 102.1592 0004611 316.7180 43.3706 15.46410589411605 Sparrow 1 43881U 18111F 26173.34045526 .00140651 00000-0 90057-3 0 9995 2 43881 97.6105 114.6750 0004495 123.6535 236.5159 15.75880275412180 Prox-1 1 44339U 19036A 26173.41245167 .00010432 00000-0 10081-2 0 9993 2 44339 23.9949 79.3420 0005879 95.8503 264.2667 14.90717291374250 Taurus 1 1 44530U 19059C 26173.81626810 .00004141 00000-0 66596-3 0 9996 2 44530 98.6425 338.9933 0007234 295.3206 64.7249 14.72141919359472 TO-108 1 44881U 19093C 26173.83362181 .00001081 00000-0 12792-3 0 9992 2 44881 97.7526 245.9281 0015085 70.3444 289.9398 14.86528590352258 RS-44 1 44909U 19096E 26173.71242865 .00000026 00000-0 50721-4 0 9992 2 44909 82.5223 336.0326 0218361 131.2961 230.7169 12.79748918303052 SALSAT 1 46495U 20068K 26173.31277948 .00005705 00000-0 20010-3 0 9997 2 46495 97.8856 176.6896 0007816 286.6046 73.4334 15.29860164316141 CSS (TIANHE-1) 1 48274U 21035A 26173.79934437 .00019288 00000-0 22604-3 0 9996 2 48274 41.4690 287.8422 0007496 126.6013 233.5516 15.61031089294047 CUTE 1 49263U 21088D 26173.52412253 .00144826 10192-4 38441-3 0 9991 2 49263 97.4184 273.3413 0007649 221.0406 139.0294 15.94619336263403 TeikyoSat 4 1 49396U 21102B 26173.68888123 .00001500 00000-0 97279-4 0 9994 2 49396 97.3667 202.9585 0010317 274.6986 85.3065 15.09523985253550 Z-Sat 1 49399U 21102E 26173.86591870 .00002011 00000-0 10107-3 0 9999 2 49399 97.3325 209.0166 0015244 222.7188 137.2863 15.18295152254308 KOSEN 1 1 49402U 21102H 26173.38452549 .00005705 00000-0 21818-3 0 9994 2 49402 97.3186 215.4408 0013771 181.8173 178.3018 15.26894284254814 HO-113 1 50466U 21131B 26173.81639551 .00000409 00000-0 13998-3 0 9992 2 50466 98.4977 266.1759 0005385 84.1044 276.0759 14.41361831235924 SNUGLITE 2 1 52899U 22065F 26173.63412238 .00000637 00000-0 12984-3 0 9999 2 52899 98.2209 318.4550 0007630 17.0111 343.1346 14.64355421211797 UmKA 1 (RS40S) 1 57172U 23091G 26173.81807955 .00004662 00000-0 21365-3 0 9997 2 57172 97.5048 232.4937 0014338 100.3140 259.9713 15.20872074164862 CubeBel-2 (EU11S) 1 57175U 23091K 26173.81127475 .00010355 00000-0 36657-3 0 9998 2 57175 97.5050 237.0787 0011246 97.6933 262.5584 15.29270084165167 RS-38S 1 57189U 23091Z 26173.81497102 .00013043 00000-0 37183-3 0 9992 2 57189 97.5090 243.4134 0007906 60.7099 299.4933 15.36175339165550 SONATE-2 1 59112U 24043Q 26173.85123223 .00032866 00000-0 42101-3 0 9992 2 59112 97.5538 324.5963 0007280 176.8356 183.2948 15.59094291128777 GRBBeta 1 60237U 24128C 26173.52945703 .00002145 00000-0 15599-3 0 9993 2 60237 61.9882 197.5223 0039947 135.7790 224.6508 15.06664014107072 Curium One 1 60242U 24128H 26173.59107479 .00004566 00000-0 26863-3 0 9991 2 60242 61.9769 186.6339 0039247 131.6342 228.8126 15.12564531107274 ROBUSTA-3A 1 60243U 24128J 26173.42654769 .00003434 00000-0 20996-3 0 9997 2 60243 61.9849 189.7146 0040671 129.0308 231.4419 15.11716494107215 CatSat 1 60246U 24125J 26173.66000495 .00050047 00000-0 62888-3 0 9992 2 60246 97.2091 26.2337 0022489 160.4293 199.7833 15.59234911108246 HYPERVIEW-1G (RS66S) 1 61772U 24199AP 26173.77527187 .00129662 00000-0 78327-3 0 9997 2 61772 97.2865 53.7817 0005117 197.7492 162.3597 15.77238828135559 AO-123 1 61781U 24199AY 26173.83380856 .00005786 00000-0 16840-3 0 9996 2 61781 97.2999 42.4534 0011981 290.9998 68.9964 15.35742963134799 JINJUSat 1B 1 63210U 25052A 26173.17016566 .00012731 00000-0 39353-3 0 9997 2 63210 97.3998 69.9319 0005371 80.3267 279.8582 15.33635797 70869 NUSHSAT 1 1 63211U 25052B 26173.46636689 .00016336 00000-0 46554-3 0 9990 2 63211 97.3974 70.8122 0005179 83.6906 276.4928 15.36146237 70955 TEVEL2-4 1 63213U 25052D 26172.68117075 .00014398 00000-0 42941-3 0 9990 2 63213 97.3895 69.0801 0004965 94.6694 265.5117 15.34745367 70801 TEVEL2-5 1 63214U 25052E 26173.41945353 .00013715 00000-0 41121-3 0 9992 2 63214 97.3894 69.7659 0004889 94.7236 265.4565 15.34589962 70912 TEVEL2-6 1 63215U 25052F 26173.23628066 .00013939 00000-0 41841-3 0 9999 2 63215 97.3899 69.5668 0004758 95.5111 264.6675 15.34550217 70882 TEVEL2-1 1 63217U 25052H 26172.67998997 .00013561 00000-0 41432-3 0 9998 2 63217 97.3870 68.6292 0004905 104.4145 255.7643 15.33994869 70786 TEVEL2-3 1 63218U 25052J 26173.19630016 .00013736 00000-0 41869-3 0 9990 2 63218 97.3873 69.1678 0004858 103.9663 256.2121 15.34065187 70869 TEVEL2-2 1 63219U 25052K 26173.26735470 .00013780 00000-0 42062-3 0 9994 2 63219 97.3874 69.2190 0004904 103.8133 256.3656 15.34020096 70879 TEVEL2-9 1 63237U 25052AD 26173.44730229 .00012471 00000-0 40513-3 0 9996 2 63237 97.3936 68.7627 0008184 116.4765 243.7317 15.32032450 70837 TEVEL2-7 1 63238U 25052AE 26173.22791571 .00011733 00000-0 38497-3 0 9998 2 63238 97.3939 68.4578 0008226 117.2661 242.9419 15.31728224 70793 TEVEL2-8 1 63239U 25052AF 26173.69351598 .00011938 00000-0 39166-3 0 9992 2 63239 97.3936 68.8989 0008249 116.5342 243.6747 15.31724980 70869 SPIRONE 1 66657U 25274H 26173.54763073 .00001847 00000-0 18041-3 0 9991 2 66657 97.7480 102.7621 0012147 4.6793 355.4538 14.93562535 31022 K-HERO 1 66660U 25274L 26173.34979910 .00001822 00000-0 17614-3 0 9990 2 66660 97.7488 102.7320 0014147 8.3935 351.7519 14.93978792 31003 SNUGLITE-III DURI 1 66661U 25274M 26173.33743986 .00001409 00000-0 13726-3 0 9993 2 66661 97.7484 102.7403 0014778 9.1040 351.0445 14.94014922 31006 SAKHACUBE-CHOLBON 1 67290U 25313AU 26173.47540641 .00007201 00000-0 29146-3 0 9993 2 67290 97.3936 248.4448 0008303 345.9303 14.1703 15.24965507 26781 RS95S (QMR-KWT-2) 1 67291U 25313AV 26173.19652892 .00009706 00000-0 37533-3 0 9996 2 67291 97.3926 248.3548 0007737 344.2345 15.8651 15.26399757 26756 Ten-Koh2 1 68261U 25241B 26173.72101997 .00004002 00000-0 17685-3 0 9998 2 68261 51.6693 293.2929 0005618 157.9978 202.1242 15.23955813 15750 JACK-002 1 68417U 26067B 26173.42997416 .00005231 00000-0 24997-3 0 9993 2 68417 97.4565 131.9555 0000483 170.4697 189.6547 15.19446642 12748 DISCO 2 1 68431U 26067R 26173.32048661 .00005773 00000-0 27798-3 0 9990 2 68431 97.4598 131.8358 0002285 34.6023 325.5360 15.19136975 12723 HADES-SA (SpinnyONE) 1 68446U 26067AG 26173.62306123 .00014513 00000-0 69095-3 0 9997 2 68446 97.4415 131.8380 0009075 67.6934 292.5262 15.19216479 12758 PARUS-6U1 1 68456U 26067AS 26173.59536620 .00004089 00000-0 20685-3 0 9990 2 68456 97.4549 131.8754 0007188 57.6054 302.5874 15.17564090 12751 SAL-E 1 68458U 26067AU 26173.32621824 .00005585 00000-0 27924-3 0 9999 2 68458 97.4473 131.5433 0007721 65.8925 294.3116 15.17817295 12712 FSI-SAT 2 1 68792U 26088A 26173.66458107 .00002837 00000-0 19371-3 0 9996 2 68792 97.5076 322.7867 0016076 89.8012 270.5058 15.06872776 9118 OrigamiSat 2 1 68795U 26088D 26173.66675597 .00008887 00000-0 56657-3 0 9992 2 68795 97.5078 322.9411 0016070 64.1668 296.1216 15.08842513 9126 ARICA 2 1 68796U 26088E 26173.66726694 .00002848 00000-0 18627-3 0 9994 2 68796 97.5069 322.9277 0016975 63.1883 297.1079 15.08464438 9123 WASEDA-SAT-ZERO-II 1 68797U 26088F 26173.66217620 .00004032 00000-0 26039-3 0 9992 2 68797 97.5065 322.9336 0016703 63.0625 297.2308 15.08693792 9121 MANGARO-II-Piscus 1 68798U 26088G 26173.38687269 .00002415 00000-0 15685-3 0 9990 2 68798 97.5073 322.6948 0020320 65.9048 294.4303 15.08814179 9080 IO-86 1 40931U 25360.30710720 .00000000 00000-0 12800-3 0 00 2 40931 6.0006 332.5373 0012733 338.8432 8.1437 14.79075515 01 LILIUM-4 1 71922C 26067AC 26089.50133053 -.00014632 00000 0 -74472-3 0 04 2 71922 97.4497 49.1617 0004341 5.9603 355.7042 15.16896692 16